Regional Weather Roundup
Issued by NWS

Home | Current Version | Previous Version | Text Only | Print | Product List | Glossary Off
Versions: 1 2 3 4 5 6 7 8 9 10 11 12 13 14 15 16 17 18 19 20 21 22 23 24 25 26 27 28 29 30 31 32 33 34 35 36 37 38 39 40 41 42 43 44 45 46 47 48 49 50

000
ASUS43 KMKX 282000
RWRWI

WISCONSIN REGIONAL WEATHER ROUNDUP
NATIONAL WEATHER SERVICE MILWAUKEE/SULLIVAN WI
300 PM CDT FRI APR 28 2017

NOTE: "FAIR" INDICATES FEW OR NO CLOUDS BELOW 12,000 FEET WITH NO
SIGNIFICANT WEATHER AND/OR OBSTRUCTIONS TO VISIBILITY.

WIZ001-002-006>008-014>016-023>028-282100-
NORTHWEST WISCONSIN

CITY           SKY/WX    TMP DP  RH WIND       PRES   REMARKS
SUPERIOR ARPT  CLOUDY    47  28  48 NW15G21   29.92R
ASHLAND        CLOUDY    44  28  53 NW14G20   29.94R
HAYWARD        CLOUDY    46  25  43 VRB7      29.92S
SIREN          CLOUDY    47  27  45 W8        29.94S
CUMBERLAND     CLOUDY    43  27  52 NW9       29.93S
RICE LAKE      CLOUDY    45  29  54 W7        29.94F
CHETEK         CLOUDY    45  31  57 N5        29.93R
LADYSMITH      CLOUDY    45  29  53 NW7       29.93S
EAU CLAIRE     NOT AVBL
MENOMONIE      CLOUDY    48  28  46 W6        29.94R
NEW RICHMOND   CLOUDY    46  28  49 NW8       29.95R
OSCEOLA        MOSUNNY   46  30  55 N6        29.97F
$$

WIZ003>005-009-010-017-018-282100-
NORTH CENTRAL WISCONSIN

CITY           SKY/WX    TMP DP  RH WIND       PRES   REMARKS
MANITOWISH WTR NOT AVBL
ARBOR VITAE    CLOUDY    39  27  61 W12       29.89R WCI  32
WOODRUFF       CLOUDY    39  27  61 W12       29.89R WCI  32
RHINELANDER    CLOUDY    42  28  57 W12       29.91R
EAGLE RIVER    CLOUDY    37  24  59 NW8G16    29.89R WCI  31
LAND O LAKES   CLOUDY    39  25  58 W6        29.90R WCI  34
PHILLIPS       CLOUDY    41  29  63 W6        29.90R
TOMAHAWK       CLOUDY    41  26  57 SW5       29.91R
MEDFORD        CLOUDY    42  28  58 SW6       29.91R
MERRILL        CLOUDY    44  29  57 W5        29.93R
$$

WIZ029-030-035-036-043>047-282100-
CENTRAL WISCONSIN

CITY           SKY/WX    TMP DP  RH WIND       PRES   REMARKS
WAUSAU         CLOUDY    46  31  55 SW13G21   29.91R
MOSINEE        PTSUNNY   45  30  57 VRB7      29.94R
MARSHFIELD     CLOUDY    45  29  53 W8        29.91S
STEVENS POINT  CLOUDY    44  29  56 W8        29.95R
WAUPACA        MOSUNNY   53  33  45 SW9       29.94R
WAUTOMA        PTSUNNY   51  33  50 VRB7      29.92F
WISC RAPIDS    CLOUDY    47  30  51 W6        29.93F
CAMP DOUGLAS   NOT AVBL
$$

WIZ011>013-019>022-031-037>040-048>050-282100-
NORTHEAST WISCONSIN

CITY           SKY/WX    TMP DP  RH WIND       PRES   REMARKS
ANTIGO         MOSUNNY   41  30  63 W12       29.92R
SHAWANO        CLOUDY    51  31  46 W7        29.93R
OCONTO         NOT AVBL
STURGEON BAY   CLOUDY    48  31  51 SW9G17    29.94S
GREEN BAY      CLOUDY    50  36  58 SW8       29.93S
MANITOWOC      NOT AVBL
APPLETON       PTSUNNY   48  32  53 SW13      29.92R
CLINTONVILLE   MOSUNNY   48  28  46 SW5       29.93R
OSHKOSH        CLOUDY    50  37  61 SW5       29.92F
$$

WIZ032>034-041-042-053>061-282100-
SOUTHWEST WISCONSIN

CITY           SKY/WX    TMP DP  RH WIND       PRES   REMARKS
LA CROSSE      CLOUDY    49  32  52 CALM      29.94S
SPARTA         CLOUDY    47  32  57 SE3       29.94F
VIROQUA        CLOUDY    46  31  58 SW3       29.93F
BOSCOBEL       CLOUDY    52  32  46 E7        29.90F
PRAIRIE DU CHI DRIZZLE   48  31  51 N5        29.90F
PLATTEVILLE    CLOUDY    47  41  80 N9        29.89F
$$

WIZ056-057-062-063-064-067-068-282100-
SOUTH CENTRAL WISCONSIN

CITY           SKY/WX    TMP DP  RH WIND       PRES   REMARKS
REEDSBURG      NOT AVBL
BARABOO/DELLS  CLOUDY    49  31  51 CALM      29.92F
LONE ROCK      NOT AVBL
MINERAL POINT  LGT RAIN  48  41  76 NE6       29.90F
MADISON        CLOUDY    48  34  58 NE5       29.90F
MIDDLETON      CLOUDY    48  37  65 CALM      29.91F
WATERTOWN      CLOUDY    49  39  67 CALM      29.92S
MONROE         DRIZZLE   46  37  71 NE8       29.89F
JANESVILLE     PTSUNNY   54  41  62 NE6       29.88F
$$

WIZ051-052-058>065-066-070>072-282100-
SOUTHEAST WISCONSIN

CITY           SKY/WX    TMP DP  RH WIND       PRES   REMARKS
MILWAUKEE      CLOUDY    48  40  73 E9        29.92F
WAUKESHA       MOSUNNY   52  37  58 S5        29.93F
MILWAUKEE/TIMM PTSUNNY   52  36  54 E6        29.93F
RACINE         LGT RAIN  47  38  71 SE7       29.94F
KENOSHA        LGT RAIN  49  40  71 E9        29.91F
FOND DU LAC    CLOUDY    50  35  56 VRB3      29.92F
SHEBOYGAN      CLOUDY    48  42  80 SE7       29.92F
WEST BEND      CLOUDY    52  36  54 CALM      29.92F
JUNEAU         DRIZZLE   46  35  64 CALM      29.93F
$$

LSZ147-162-282100-
LAKE SUPERIOR

STATION/POSITION TIME  TEMP    WIND        PRES    WAVE
                       AIR SEA DIR/SP/G            HT/PER
                 (UTC) (F)     (DEG/KT/KT) (MB)    (FT/S)
DEVILS ISLAND    1900   37     230/ 23/ 26 1012.6S
PORT WING        1740   38     240/ 12/ 19 1013.2R
SAXON HARBOR     1930   42     270/  9/ 17 1013.2R
$$

LMZ867-665-643>646-282100-
LAKE MICHIGAN

STATION/POSITION TIME  TEMP    WIND        PRES    WAVE
                       AIR SEA DIR/SP/G            HT/PER
                 (UTC) (F)     (DEG/KT/KT) (MB)    (FT/S)
CHAMBERS ISLAND  1940   44     150/  6/ 14 1013.2R
N MID LAKE BUOY  1850   38 37  220/ 10/ 12 1014.8R   3/ 5
NORTHPORT PIER   1940   45     190/  5/ 12 1013.5S
KEWAUNEE LAKESHO 1930   41     170/ 15/ 19 1013.8R
SHEBOYGAN LAKESH 1900   40     170/ 14/ 16 1014.5R
PORT WASHINGTON  1940   42     140/  5/  8 1014.6F
MILWAUKEE LAKESH 1930   43     120/ 10/ 11   N/A
S MID LAKE BUOY  1850   43 43   40/  2/  4 1015.6R   0
KENOSHA   LAKESH 1900   45     110/  4/  5 1013.9
$$

TC  - TEMPERATURE IN CELSIUS
VSB - VISIBILITY IN STATUTE MILES
WCI - WIND CHILL INDEX
HX  - HEAT INDEX




USA.gov is the U.S. government's official web portal to all federal, state and local government web resources and services.